Regional Weather Roundup
Issued by NWS

Home | Current Version | Previous Version | Text Only | Print | Product List | Glossary On
Versions: 1 2 3 4 5 6 7 8 9 10 11 12 13 14 15 16 17 18 19 20 21 22 23 24 25 26 27 28 29 30 31 32 33 34 35 36 37 38 39 40 41 42 43 44 45 46 47 48 49 50
000
ASUS44 KEWX 231303
RWRTX
SOUTH TEXAS REGIONAL WEATHER ROUNDUP
NATIONAL WEATHER SERVICE AUSTIN/SAN ANTONIO TX
800 AM CDT FRI JUN 23 2017

NOTE: "FAIR" INDICATED FEW OR NO CLOUDS BELOW 12,000 FEET WITH NO
SIGNIFICANT WEATHER AND/OR OBSTRUCTIONS TO VISIBILITY.

* - THESE STATIONS ARE NOT NWS OR FAA STATIONS...AND ARE NOT SUBJECT
    TO NWS AND FAA QUALITY CONTROL.

TXZ171-172-183>190-231400-
TEXAS HILL COUNTRY AND EDWARDS PLATEAU

CITY           SKY/WX    TMP DP  RH WIND       PRES   REMARKS
JUNCTION       SUNNY     79  69  71 CALM      29.80R
*LLANO         SUNNY     75  72  88 CALM      29.80R FOG
BURNET         SUNNY     78  70  76 S8        29.81R
*HORSESHOE BAY SUNNY     80  70  70 MISG      29.78R
*KERRVILLE     SUNNY     76  72  85 SE8       29.82R
*FREDERICKSBRG SUNNY     76  68  74 S7        29.81S
*ROCKSPRINGS   SUNNY     75  72  88 S10       29.83F
*BOERNE STAGE  SUNNY     73  70  88 S6        29.82S
*CASTROVILLE   MOSUNNY   78  73  86 E8        29.80R
HONDO          SUNNY     79  73  82 N5        29.80R
*UVALDE        SUNNY     77  72  84 E9        29.78S
DEL RIO        SUNNY     80  70  71 E13G23    29.73R
LAUGHLIN AFB   NOT AVBL
CARRIZO SPRGS  SUNNY     79  68  69 E3        29.74R
*EAGLE PASS    NOT AVBL
$$

TXZ173-191>194-202-209-217>225-228-231400-
CENTRAL AND SOUTH CENTRAL TEXAS

CITY           SKY/WX    TMP DP  RH WIND       PRES   REMARKS
GEORGETOWN     SUNNY     79  72  78 S12       29.77R
AUSTIN/BERGSTM CLOUDY    81  76  84 S14       29.78R
AUSTIN/MABRY   CLOUDY    79  75  87 S10G17    29.79R
*AUSTIN/EXEC     N/A     77  77 100 S10G16    29.79R
*LAGO VISTA    CLOUDY    78  74  87 S6        29.81R
SAN MARCOS     PTSUNNY   75  75 100 S5        29.80R FOG
NEW BRAUNFELS  CLOUDY    79  76  90 S7        29.78R FOG
RANDOLPH AFB   CLOUDY    75  75 100 CALM      29.79R
PT SAN ANTONIO MOSUNNY   78  74  86 SE7       29.77R
SAN ANTONIO    MOSUNNY   78  73  84 SE7       29.79R
STINSON FIELD  PTSUNNY   79  74  84 E5        29.77R
*LA GRANGE     CLOUDY    83  79  89 S10       29.77R HX  93
*GIDDINGS      PTSUNNY   79  75  90 S6        29.79R
*GONZALES      CLOUDY    81  80  96 S10       29.78R HX  91
$$

TXZ163>164-176>182-195>201-210>213-226-227-235-231400-
SOUTHEAST TEXAS

CITY           SKY/WX    TMP DP  RH WIND       PRES   REMARKS
COLLEGE STN    CLOUDY    79  77  94 S12       29.79R
*BRYAN         CLOUDY    80  79  97 S9        29.81R
*CALDWELL      NOT AVBL
*CROCKETT      CLOUDY    77  75  94 S5        29.83R FOG
*BRENHAM       CLOUDY    82  78  88 S9G16     29.80R HX  91
HUNTSVILLE     SUNNY     81  75  82 S10       29.80R
CONROE         CLOUDY    81  76  84 S10       29.82R
HOUSTON BUSH   MOSUNNY   82  76  81 S9        29.81R
HOUSTON HOBBY  MOSUNNY   83  76  79 S7        29.81R HX  91
*HOUSTON SW AP SUNNY     80  76  89 S6        29.82R
PEARLAND       SUNNY     84  76  76 S8        29.82R HX  93
HOUSTON HOOKS  CLOUDY    81  77  88 S7        29.81R
ELLINGTON FLD  PTSUNNY   81  79  94 S6        29.80S
SUGAR LAND     MOSUNNY   83  77  82 S13       29.81R HX  92
*HOUSTON EXEC  SUNNY     81  77  89 S10       29.81S FOG
*CLEVELAND MUN PTSUNNY   78  77  95 S3        29.83R FOG
*WHARTON       SUNNY     80  75  84 S8        29.80R
*COLUMBUS      PTSUNNY   79  76  92 SE5       29.80R
*EAGLE LAKE    MOSUNNY   80  80 100 S8        29.79S
$$

TXZ214>216-236>238-231400-
THE UPPER TEXAS COAST

CITY           SKY/WX    TMP DP  RH WIND       PRES   REMARKS
*ORANGE        CLOUDY    82  79  91 SW8       29.85R HX  91
PORT ARTHUR      N/A     81  77  88 MISG      29.82R
GALVESTON      CLOUDY    82  79  90 S16       29.83R HX  92
ANGLETON       SUNNY     83  77  82 S15       29.81R HX  92
*BAY CITY      SUNNY     83  76  81 S10       29.80R HX  91
PALACIOS       MOSUNNY   82  75  79 S16       29.80R
$$

TXZ229>234-239>247-231400-
TEXAS COASTAL BEND AND RIO GRANDE PLAINS

CITY           SKY/WX    TMP DP  RH WIND       PRES   REMARKS
VICTORIA       MOSUNNY   84  76  76 S13       29.79R HX  93
*BEEVILLE      SUNNY     82  82 100 S9G16     29.77R HX  95
ROCKPORT       MOSUNNY   84  76  76 S10       29.78R HX  93
*PORT ARANSAS  MOSUNNY   84  75  74 S15G25    29.78R HX  92
*PORT LAVACA   SUNNY     82  78  87 S9        29.79R HX  92
*INGLESIDE     MOSUNNY   85  77  75 MISG      29.77R HX  96
CORPUS CHRISTI MOSUNNY   84  78  82 S7        29.77R HX  95
CORPUS NAS     MOSUNNY   86  78  77 S20G25    29.77R HX  98
*ROBSTOWN      SUNNY     82  77  84 S10       29.77R HX  91
ALICE          LGT RAIN  80  76  87 S14       29.75R
KINGSVILLE NAS MOSUNNY   83  79  88 SE16      29.76R HX  94
COTULLA        SUNNY     80  72  76 SE12      29.74R
*FAITH RANCH   SUNNY     84  64  51 SE8G14    29.73R
LAREDO         SUNNY     82  71  69 SE16      29.73R
$$

TXZ248>255-231400-
DEEP SOUTH TEXAS

CITY           SKY/WX    TMP DP  RH WIND       PRES   REMARKS
BROWNSVILLE    SUNNY     83  77  82 S14       29.76R HX  92
PORT ISABEL    SUNNY     84  77  79 S15       29.75R HX  94
*SOUTH PADRE   NOT AVBL
HARLINGEN      SUNNY     84  78  82 S15       29.74R HX  95
*HEBBRONVILLE  SUNNY     77  74  90 SE9       29.77R
MCALLEN        MOSUNNY   84  76  76 SE18G24   29.75R HX  93
*WESLACO       CLOUDY    83  76  79 SE12      29.74R HX  90
FALFURRIAS     SUNNY     81  76  84 SE7       29.75R
EDINBURG       SUNNY     85  75  71 SE12      29.75R HX  93
*ZAPATA        SUNNY     82  71  69 SE10G18   29.72R
$$

TXZ213>215-236>238-242>244-246-247-251-254-255-231400-
CMAN STATIONS

STATION/POSITION TIME  TEMP    WIND        PRES    WAVE
                       AIR SEA DIR/SP/G            HT/PER
                 (UTC) (F)     (DEG/KT/KT) (MB)    (FT/S)
SABINE PASS      1224   82 83  190/ 12/ 17 1011.5
SEA RIM ST PARK  1200   81     200/ 14/ 17 1010.2
NORTH JETTY/GLS  1224      81  190/ 16/ 19 1009.2
EAGLE POINT      1224   82 81  210/ 15/ 18 1009.4
MORGANS POINT    1224   82 83  180/  8/ 13 1009.2
MISSION/ARANSAS  1200          170/ 16       N/A
PORT O`CONNOR    1224   83     170/ 17/ 20 1008.1
PORT ARANSAS     1200   84 84  160/ 21/ 23 1007.5
MALAQUITE BEACH  1224   84 85  160/ 22/ 25 1007.0
BAFFIN BAY       1224   83 83              1007.8
PORT ISABEL      1224   83 86              1007.7
$$

GMZ080-GMZ150>470-231400-
OFFSHORE BUOY REPORTS

STATION/POSITION TIME  TEMP    WIND        PRES    WAVE
                       AIR SEA DIR/SP/G            HT/PER
                 (UTC) (F)     (DEG/KT/KT) (MB)    (FT/S)
20 E GALVESTON   1150   82 81  200/ 14/ 17 1009.2    5/ 7
90 E PT ARANSAS  1150   83 83  170/ 17/ 19 1008.6    9/ 7
35 NE PT MANSFLD 1150   84     180/ 19/ 25 1006.6    7/ 7
$$




USA.gov is the U.S. government's official web portal to all federal, state and local government web resources and services.